Location: Briis
(48.6240°N, 2.1211°E)
Time: 03:46:03
(UTC+00:00)

Cosmos 1733 Rocket - Pass Details

Date: 25 September 2020
Orbit: 602 x 629 km, 82.5° (Epoch: 22 October)

Event Time Altitude Azimuth Distance (km) Brightness Sun altitude
Rises 03:40:29 0° 351° (N) 2,884 6.7 -20.5°
Reaches altitude 10° 03:42:44 10° 354° (N) 1,971 5.8 -20.2°
Maximum altitude 03:47:05 73° 79° (E) 639 3.2 -19.5°
Drops below altitude 10° 03:51:23 10° 165° (SSE) 1,945 5.5 -18.8°
Sets 03:53:35 0° 167° (SSE) 2,842 6.4 -18.5°
